Regional Weather Roundup
Issued by NWS

Home | Current Version | Previous Version | Graphics & Text | Print | Product List | Glossary On
Versions: 1 2 3 4 5 6 7 8 9 10 11 12 13 14 15 16 17 18 19 20 21 22 23 24 25 26 27 28 29 30 31 32 33 34 35 36 37 38 39 40 41 42 43 44 45 46 47 48 49 50
000
ASUS45 KBOU 261207
RWRCO

WEATHER ROUNDUP FOR COLORADO
NATIONAL WEATHER SERVICE DENVER/BOULDER CO
500 AM MST THU FEB 26 2015

NOTE: "FAIR" INDICATES FEW OR NO CLOUDS BELOW 12000 FEET WITH NO
SIGNIFICANT WEATHER AND/OR OBSTRUCTIONS TO VISIBILITY.

COZ001>005-013-030-031-261300-
...NORTHWEST COLORADO...

CITY           SKY/WX    TMP DP  RH WIND       PRES   REMARKS
CRAIG          MOCLDY    12   8  84 E3        30.04
HAYDEN         CLEAR     14  10  85 CALM      30.01F
MEEKER         CLEAR     14  10  84 CALM      30.02S
MOUNT WERNER   NOT AVBL
STEAMBOAT SPGS CLOUDY    14  12  92 CALM      30.00S
WALDEN         CLOUDY    10   5  79 NW3       29.97S
$$

COZ006>008-011-261300-
...WEST CENTRAL VALLEYS...

CITY           SKY/WX    TMP DP  RH WIND       PRES   REMARKS
GRAND JUNCTION CLEAR     19  16  88 CALM      30.03S
MONTROSE       CLEAR     16  12  84 SE8       30.06R WCI   5
EAGLE          PTCLDY    16  14  93 CALM      30.04S
RIFLE          CLEAR     19  13  77 E5        30.05S WCI  12
DELTA          CLOUDY    29  25  85 E5        30.06S WCI  24
NUCLA          CLEAR     23  18  80 SE8       30.05F WCI  14
$$

COZ017>023-064>068-261300-
...SOUTHWEST COLORADO...

CITY           SKY/WX    TMP DP  RH WIND       PRES   REMARKS
DURANGO        CLEAR     17  14  88 CALM      29.97R
CORTEZ         CLEAR     23  18  81 E5        30.01R WCI  17
PAGOSA SPRINGS PTCLDY    17  16  97 N3        29.96F
TELLURIDE      PTCLDY    14  12  92 CALM      29.98F
WOLF CREEK PAS CLEAR      5   1  85 W7        29.94R WCI  -7
$$

COZ009-010-012-014-032>034-037-058>063-261300-
...CENTRAL COLORADO...

CITY           SKY/WX    TMP DP  RH WIND       PRES   REMARKS
ASPEN          MOCLDY    12   7  80 S6        29.96F WCI   3
BUENA VISTA    FLURRIES   3  -1  84 W3        29.98S
COPPER MTN     PTCLDY     5  -2  72 W21G26    29.84S WCI -16
BERTHOUD PASS  CLOUDY    -2  -8  78 NW18G28   29.81F HAZE    WCI -24
COTTONWOOD PAS CLEAR     14   9  79 CALM      29.92S
GUNNISON       PTCLDY     9   1  72 CALM      30.00F
KREMMLING      PTCLDY     5   1  85 CALM      30.01F
LEADVILLE      PTCLDY     2  -2  83 NE5       29.90F WCI  -8
MONARCH PASS   CLOUDY     5   1  85 MISG      29.95S
SALIDA         PTCLDY    18  15  88 SE3       30.07S
SUNLIGHT       PTCLDY   N/A N/A N/A CALM        N/A
WILKERSON PASS LGT SNOW N/A N/A N/A SW6       29.89S
$$

COZ069>075-261300-
...SAN LUIS VALLEY/SANGRE DE CRISTO MOUNTAINS...

CITY           SKY/WX    TMP DP  RH WIND       PRES   REMARKS
ALAMOSA        PTCLDY    10   6  84 CALM      29.97R
LA VETA PASS   LGT SNOW   3   0  85 MISG      29.93R
SAGUACHE       MOCLDY    18  14  86 E6        29.98R WCI   9
$$

COZ035-036-038>040-261300-
...NORTHERN COLORADO FRONT RANGE...

CITY           SKY/WX    TMP DP  RH WIND       PRES   REMARKS
DENVER INTL AP FLURRIES   9   5  84 E6        30.14F WCI  -1
DMNS CITY PARK   N/A     11   9  91 SE2       30.15S
AURORA         MOCLDY     8   4  84 SE5       30.14S WCI  -1
FRONT RANGE AP NOT AVBL
ERIE MUNI ARPT FLURRIES  10   8  92 SE3       30.16F
BOULDER MUN AP LGT SNOW  16  14  93 CALM      30.14F
CENTENNIAL     CLOUDY    10   7  87 E3        30.12S FOG
BROOMFIELD     LGT SNOW  14  12  92 SE3       30.13F
FORT COLLINS   PTCLDY    14  10  85 E10       30.18S WCI   1
LONGMONT       FLURRIES  18  14  82 SE3       30.19S
$$

COZ041-046-047-076>085-087-088-261300-
...PIKES PEAK/PALMER DIVIDE AND SOUTHERN FOOTHILLS...

CITY           SKY/WX    TMP DP  RH WIND       PRES   REMARKS
COLO. SPRINGS  CLOUDY    16   7  67 N7        30.10S WCI   6
A. F. ACADEMY  PTCLDY    11   6  78 N7        30.07S WCI   1
ELLICOTT       NOT AVBL
FALCON         LGT SNOW  11   7  82 N6        30.07S WCI   2
FORT CARSON    LGT SNOW  17   9  72 N10       30.11R WCI   4
LIMON          CLOUDY    12  10  92 NE5       30.15R WCI   4
MONUMENT HILL  LGT SNOW   7   5  92 N3        30.04F VSB 1
TRINIDAD       LGT SNOW  20  16  84 NW14      30.10R FOG     WCI   7
$$

COZ042>045-048>051-090-091-261300-
...NORTHEAST COLORADO...

CITY           SKY/WX    TMP DP  RH WIND       PRES   REMARKS
GREELEY ARPT   CLOUDY    16   3  57 NE10      30.19R WCI   3
AKRON          FLURRIES  11   7  84 NE8       30.21R WCI  -1
BURLINGTON     CLOUDY    15   9  76 N13       30.23R WCI   1
WRAY           MOCLDY    14   6  68 N7        30.29R WCI   4
STERLING       CLOUDY    14   9  79 NE5       30.25S WCI   6
HOLYOKE        NOT AVBL
FORT MORGAN    FLURRIES  14   9  83 NE3       30.22F
$$

COZ086-089-092>099-261300-
...SOUTHEAST COLORADO...

CITY           SKY/WX    TMP DP  RH WIND       PRES   REMARKS
PUEBLO         LGT SNOW  21  19  92 NE3       30.18R FOG
LA JUNTA       LGT SNOW  18  14  84 E16       30.21R FOG     WCI   3
LAMAR          CLOUDY    18  12  77 NE14      30.24R WCI   4
SPRINGFIELD      N/A     17  14  88 N18       30.18R WCI   1
$$


USA.gov is the U.S. government's official web portal to all federal, state and local government web resources and services.